Home > Weather > Vevey > Past weeks

Flag for Switzerland Past Weather in Vevey, Vaud, Switzerland — Yesterday and Last 2 Weeks

Now
71 °F

Mild.


Feels Like: 74 °F
Forecast: 65 / 80 °F
Wind: 3 mph from North

Location: Aigle

Current Time: Jul 24, 2016 at 10:49:10 AM

Latest Report: Jul 24, 2016 at 10:00 AM


Visibility: N/A

Pressure: 30.08 "Hg

Humidity: 70%

Dew Point: 61 °F

Location of VeveyLocation

Past Weather in Vevey — Graph

°F

Vevey Temperature Yesterday

Maximum temperature yesterday: 74 °F (at 1:00 PM)
Minimum temperature yesterday: 63 °F (at 4:00 AM)
Average temperature yesterday: 68 °F

High & Low Weather Summary for the Past Weeks

 TemperatureHumidityPressure
High88 °F (Jul 20, 5:00 PM)97% (Jul 22, 7:00 AM)30.31 "Hg (Jul 22, 7:00 AM)
Low46 °F (Jul 15, 6:00 AM)38% (Jul 16, 5:00 PM)29.86 "Hg (Jul 10, 6:00 PM)
Average67 °F75%30.07 "Hg
* Reported Jul 9 9:00 AM — Jul 24 9:00 AM, Vevey, Weather by CustomWeather, © 2016

Note: Actual official high and low records may vary slightly from our data, if they occured in-between our weather recording intervals... More about our weather records

Advertising

Vevey Weather History for the Previous 24 Hours

Scroll right to see more
 ConditionsComfort  
Time TempWeatherWind HumidityBarometerVisibility
9:00 AM
Sun, Jul 24
68 °FMild.3 mph75%30.09 "HgN/A
8:00 AM65 °FPassing clouds.3 mph79%30.09 "Hg16 mi
7:00 AM62 °FCool.5 mph87%30.11 "HgN/A
6:00 AM62 °FMild.3 mph89%30.10 "HgN/A
5:00 AM62 °FPassing clouds.3 mph90%30.10 "Hg19 mi
4:00 AM63 °FMild.5 mph89%30.11 "HgN/A
3:00 AM64 °FMild.3 mph88%30.11 "HgN/A
2:00 AM63 °FMild.2 mph94%30.12 "HgN/A
1:00 AM63 °FMild.3 mph93%30.13 "HgN/A
12:00 AM64 °FMild.3 mph92%30.11 "HgN/A
11:00 PM
Sat, Jul 23
64 °FMild.2 mph92%30.11 "HgN/A
10:00 PM64 °FMild.2 mph92%30.09 "HgN/A
9:00 PM67 °FMild.3 mph78%30.06 "HgN/A
8:00 PM72 °FPartly sunny.7 mph66%30.03 "Hg9 mi
7:00 PM72 °FMild.9 mph70%30.03 "HgN/A
6:00 PM71 °FMild.7 mph76%30.04 "HgN/A
5:00 PM72 °FLight rain. Overcast.2 mph72%30.03 "Hg7 mi
4:00 PM72 °FMild.12 mph70%30.01 "HgN/A
3:00 PM73 °FMild.13 mph75%30.00 "HgN/A
2:00 PM74 °FOvercast.7 mph68%30.01 "Hg9 mi
1:00 PM74 °FMild.7 mph72%30.01 "HgN/A
12:00 PM72 °FMild.2 mph78%30.03 "HgN/A
11:00 AM71 °FPartly sunny.1 mph81%30.03 "Hg17 mi
10:00 AM69 °FMild.1 mph86%30.03 "HgN/A
Weather by CustomWeather, © 2016

See weather overviewHow to use our weather pages